Probability
0 0 0 0 0 0 0 0 0 0 0 0 0 0 0 0 0 0 0 0 0 0 0 0 0 0 0 0 0 0 0 0 0 0 0 0 0 0 0 0 0 0 0
0 0 0 0 0 0 0 0 0 0 0 0 0 0 0 0 0 0 0 0 0 0 0 0 0 0 0 0 0 0 0 0 0 0 0 0 0 0 0 0 0 0 0
0 0 0 0 0 0 0 0 0 0 0 0 0 0 0 0 0 0 0 0 0 0 0 0 0 0 0 0 0 0 0 0 0 0 0 0 0 0 0 0 0 0 0
0 0 0 0 0 0 0 0 0 0 0 0 0 0 0 0 0 0 0 0 0 0 0 0 0 0 0 0 0 0 0 0 0 0 0 0 0 0 0 0 0 0 0
0 0 0 0 0 0 0 0 0 0 0 0 0 0 0 0 0 0 0 0 0 0 0 0 0 0 0 0 0 0 0 0 0 0 0 0 0 0 0 0 0 0 0
0 0 0 0 0 0 0 0 0 0 0 0 0 0 0 0 0 0 0 0 0 0 0 0 0 0 0 0 0 0 0 0 0 0 0 0 0 0 0 0 0 0 0
0 0 0 0 0 0 0 0 0 0 0 0 0 0 0 0 0 0 0 0 0 0 0 0 0 0 0 0 0 0 0 0 0 0 0 0 0 0 0 0 0 0 0
0 0 0 0 0 0 0 0 0 0 0 0 0 0 0 0 0 0 0 0 0 0 0 0 0 0 0 0 0 0 0 0 0 0 0 0 0 0 0 0 0 0 0
0 0 0 0 0 0 0 0 0 0 0 0 0 0 0 0 0 0 0 0 0 0 0 0 0 0 0 0 0 0 0 0 0 0 0 0 0 0 0 0 0 0 0
0 0 0 0 0 0 0 0 0 0 0 0 0 0 0 0 0 0 0 0 0 0 0 0 0 0 0 0 0 0 0 0 0 0 0 0 0 0 0 0 0 0 0
0 0 0 0 0 0 0 0 0 0 0 0 0 0 0 0 0 0 0 0 0 0 0 0 0 0 0 0 0 0 0 0 0 0 0 0 0 0 0 0 0 0 0
0 0 0 0 0 0 0 0 0 0 0 0 0 0 0 0 0 0 0 0 0 0 0 0 0 0 0 0 0 0 0 0 0 0 0 0 0 0 0 0 0 0 0
0 0 0 0 0 0 0 0 0 0 0 0 0 0 0 0 0 0 0 0 0 0 0 0 0 0 0 0 0 0 0 0 0 0 0 0 0 0 0 0 0 0 0
0 0 0 0 0 0 0 0 0 0 0 0 0 0 0 0 0 0 0 0 0 0 0 0 0 0 0 0 0 0 0 0 0 0 0 0 0 0 0 0 0 0 0
0 0 0 0 0 0 0 0 0 0 0 0 0 0 0 0 0 0 0 0 0 0 0 0 0 0 0 0 0 0 0 0 0 0 0 0 0 0 0 0 0 0 0
0 0 0 0 0 0 0 0 0 0 0 0 0 0 0 0 0 0 0 0 0 0 0 0 0 0 0 0 0 0 0 0 0 0 0 0 0 0 0 0 0 0 0
0 0 0 0 0 0 0 0 0 0 0 0 0 0 0 0 0 0 0 0 0 0 0 0 0 0 0 0 0 0 0 0 0 0 0 0 0 0 0 0 0 0 0
0 0 0 0 0 0 0 0 0 0 0 0 0 0 0 0 0 0 0 0 0 0 0 0 0 0 0 0 0 0 0 0 0 0 0 0 0 0 0 0 0 0 0
0 0 0 0 0 0 0 0 0 0 0 0 0 0 0 0 0 0 0 0 0 0 0 0 0 0 0 0 0 0 0 0 0 0 0 0 0 0 0 0 0 0 0
0 0 0 0 0 0 0 0 0 0 0 0 0 0 0 0 0 0 0 0 0 0 0 0 0 0 0 0 0 0 0 0 0 0 0 0 0 0 0 0 0 0 0
0 0 0 0 0 0 0 0 0 0 0 0 0 0 0 0 0 0 0 0 0 0 0 0 0 0 0 0 0 0 0 0 0 0 0 0 0 0 0 0 0 0 0
0 0 0 0 0 0 0 0 0 0 0 0 0 0 0 0 0 0 0 0 0 0 0 0 0 0 0 0 0 0 0 0 0 0 0 0 0 0 0 0 0 0 0
0 0 0 0 0 0 0 0 0 0 0 0 0 0 0 0 0 0 0 0 0 0 0 0 0 0 0 0 0 0 0 0 0 0 0 0 0 0 0 0 0 0 0
0 0 0 0 0 0 0 0 0 0 0 0 0 0 0 0 0 0 0 0 0 0 0 0 0 0 0 0 0 0 0 0 0 0 0 0 0 0 0 0 0 0 0
0 0 0 0 0 0 0 0 0 0 0 0 0 0 0 0 0 0 0 0 0 0 0 0 0 0 0 0 0 0 0 0 0 0 0 0 0 0 0 0 0 0 0
0 0 0 0 0 0 0 0 0 0 0 0 0 0 0 0 0 0 0 0 0 0 0 0 0 0 0 0 0 0 0 0 0 0 0 0 0 0 0 0 0 0 0
Height
5802 5801 5800 5798 5797 5795 5794 5793 5791 5789 5788 5786 5784 5782 5780 5778 5775 5772 5769 5766 5763 5760 5756 5752 5747 5742 5737 5732 5726 5720 5714 5708 5703 5696 5686 5677 5669 5661 5653 5644 5636 5629 5622
5793 5791 5790 5788 5787 5785 5784 5782 5780 5779 5777 5775 5773 5771 5768 5765 5762 5759 5757 5754 5750 5746 5742 5738 5733 5728 5723 5718 5712 5705 5699 5692 5686 5680 5670 5661 5653 5644 5637 5629 5620 5613 5606
5783 5782 5780 5778 5776 5775 5773 5771 5769 5767 5765 5763 5761 5758 5755 5752 5749 5746 5743 5740 5736 5732 5728 5724 5720 5715 5709 5703 5697 5691 5684 5677 5670 5664 5656 5647 5639 5630 5623 5615 5607 5600 5593
5773 5772 5770 5768 5766 5764 5762 5760 5758 5756 5753 5751 5748 5744 5741 5739 5736 5733 5729 5726 5722 5719 5715 5710 5706 5701 5695 5689 5683 5676 5670 5663 5656 5649 5642 5634 5626 5618 5611 5604 5597 5589 5581
5762 5760 5759 5756 5755 5752 5750 5748 5746 5743 5740 5738 5734 5731 5728 5725 5722 5719 5716 5712 5709 5705 5701 5696 5692 5687 5681 5675 5669 5663 5657 5651 5644 5637 5630 5623 5616 5608 5601 5593 5586 5579 5572
5750 5748 5746 5744 5743 5740 5738 5735 5733 5730 5727 5724 5721 5717 5714 5711 5708 5705 5701 5698 5694 5691 5687 5683 5678 5674 5668 5662 5656 5651 5645 5640 5634 5627 5621 5614 5607 5600 5593 5585 5578 5571 5565
5739 5737 5734 5732 5730 5728 5725 5722 5719 5717 5714 5711 5707 5704 5701 5698 5694 5691 5688 5685 5681 5678 5674 5670 5666 5661 5656 5650 5645 5639 5634 5629 5624 5619 5613 5607 5601 5594 5587 5580 5571 5564 5557
5728 5726 5723 5720 5717 5714 5712 5709 5706 5703 5700 5696 5693 5690 5687 5683 5680 5677 5674 5671 5667 5664 5661 5657 5653 5649 5645 5640 5635 5630 5625 5620 5616 5611 5606 5600 5594 5588 5581 5574 5567 5560 5552
5717 5714 5712 5709 5705 5702 5699 5696 5693 5690 5686 5683 5679 5676 5672 5669 5666 5663 5660 5657 5654 5651 5648 5645 5642 5638 5634 5630 5626 5622 5618 5614 5610 5605 5601 5596 5590 5584 5577 5571 5564 5557 5550
5706 5703 5699 5696 5693 5689 5686 5683 5679 5676 5672 5669 5665 5661 5658 5655 5652 5649 5646 5644 5641 5638 5636 5634 5631 5628 5626 5622 5619 5615 5612 5609 5605 5601 5597 5592 5587 5581 5575 5569 5562 5555 5549
5695 5691 5687 5683 5680 5676 5673 5669 5666 5662 5658 5655 5652 5648 5644 5641 5638 5635 5633 5630 5628 5626 5625 5623 5621 5619 5618 5616 5613 5611 5608 5605 5602 5599 5595 5590 5585 5579 5573 5567 5561 5555 5548
5684 5680 5676 5672 5668 5664 5660 5656 5652 5648 5645 5642 5638 5635 5631 5628 5625 5622 5620 5618 5616 5615 5614 5614 5613 5612 5612 5610 5609 5607 5605 5603 5600 5597 5593 5588 5583 5578 5573 5567 5561 5554 5548
5674 5670 5665 5661 5656 5651 5647 5643 5640 5636 5633 5629 5626 5623 5619 5616 5613 5610 5608 5607 5606 5606 5606 5606 5607 5607 5607 5607 5606 5605 5603 5601 5599 5596 5592 5587 5583 5577 5572 5566 5560 5554 5548
5665 5660 5655 5650 5645 5640 5636 5632 5629 5626 5622 5619 5616 5612 5609 5606 5603 5600 5599 5598 5598 5599 5600 5601 5603 5604 5604 5605 5605 5604 5602 5600 5598 5595 5591 5587 5582 5577 5571 5566 5560 5555 5549
5656 5650 5645 5640 5635 5631 5627 5623 5619 5616 5614 5611 5607 5604 5601 5598 5595 5594 5593 5593 5594 5595 5597 5599 5601 5603 5604 5604 5604 5603 5602 5600 5597 5594 5590 5586 5582 5577 5571 5566 5561 5555 5549
5649 5643 5638 5633 5628 5623 5620 5616 5612 5610 5607 5604 5602 5599 5596 5593 5591 5590 5590 5591 5593 5595 5597 5599 5601 5602 5604 5604 5604 5603 5602 5600 5598 5594 5590 5586 5581 5576 5571 5566 5561 5555 5550
5644 5638 5633 5628 5623 5619 5616 5612 5609 5607 5604 5601 5599 5596 5594 5592 5591 5591 5591 5593 5594 5596 5599 5600 5602 5604 5605 5605 5605 5604 5603 5601 5598 5595 5591 5586 5582 5577 5572 5566 5561 5555 5550
5641 5636 5631 5626 5622 5618 5614 5611 5608 5605 5603 5601 5599 5596 5595 5593 5593 5593 5594 5596 5598 5599 5601 5603 5605 5606 5607 5607 5607 5606 5604 5602 5599 5595 5591 5587 5582 5577 5572 5567 5561 5556 5550
5640 5636 5631 5627 5622 5618 5615 5611 5609 5606 5604 5602 5600 5599 5597 5597 5597 5597 5598 5600 5601 5603 5605 5607 5608 5609 5610 5610 5609 5608 5606 5603 5600 5597 5593 5588 5583 5578 5573 5568 5562 5557 5552
5641 5636 5632 5628 5624 5620 5617 5614 5611 5608 5606 5604 5603 5602 5601 5601 5601 5602 5603 5604 5606 5608 5609 5611 5612 5613 5613 5612 5611 5609 5607 5605 5602 5598 5594 5590 5585 5581 5575 5570 5565 5559 5554
5642 5638 5634 5631 5627 5623 5620 5617 5615 5612 5610 5609 5608 5607 5606 5606 5607 5607 5608 5610 5611 5612 5614 5615 5616 5616 5615 5615 5613 5611 5609 5606 5603 5600 5596 5593 5588 5584 5579 5574 5568 5563 5558
5643 5640 5637 5634 5630 5627 5624 5621 5619 5617 5615 5614 5613 5612 5612 5612 5612 5613 5614 5615 5616 5617 5618 5619 5619 5619 5618 5617 5615 5613 5611 5608 5606 5603 5599 5596 5592 5587 5583 5578 5573 5568 5563
5645 5642 5639 5636 5634 5631 5628 5626 5624 5622 5620 5619 5618 5618 5618 5618 5618 5619 5619 5620 5621 5622 5622 5623 5623 5622 5621 5619 5618 5616 5613 5611 5608 5606 5603 5599 5595 5591 5587 5582 5577 5572 5568
5646 5644 5642 5639 5637 5634 5632 5630 5628 5627 5625 5624 5624 5623 5623 5623 5623 5624 5624 5625 5625 5626 5626 5626 5625 5625 5623 5622 5620 5618 5616 5614 5611 5609 5606 5602 5599 5595 5591 5587 5582 5578 5573
5647 5646 5644 5642 5640 5638 5636 5634 5632 5631 5630 5629 5628 5628 5628 5628 5628 5628 5629 5629 5629 5629 5629 5629 5628 5627 5626 5624 5623 5621 5619 5617 5615 5612 5609 5605 5602 5598 5595 5591 5587 5582 5578
5649 5647 5645 5643 5642 5640 5638 5637 5636 5635 5634 5633 5632 5632 5632 5632 5632 5632 5632 5632 5632 5632 5632 5631 5631 5630 5628 5627 5625 5624 5622 5620 5618 5615 5612 5609 5605 5602 5598 5595 5591 5587 5583
Wind_Speed
45 43 42 41 40 39 39 40 40 40 41 42 43 44 46 47 48 48 49 50 51 52 54 54 55 55 56 56 58 59 60 61 62 63 65 65 66 66 67 67 67 66 63
43 43 42 42 43 43 43 43 43 44 45 46 47 49 50 51 52 52 53 54 55 56 55 55 55 55 56 57 58 59 61 62 62 62 62 63 63 63 63 61 59 57 55
43 43 44 45 46 46 47 47 48 49 50 51 52 54 55 56 57 57 57 57 57 56 55 55 55 55 56 57 58 60 61 61 61 60 59 59 58 57 54 53 51 50 49
44 45 46 47 48 49 50 51 52 53 54 55 56 57 58 59 59 59 59 57 56 55 54 54 55 55 56 58 59 59 59 58 58 56 54 53 51 50 48 47 45 45 44
46 47 48 50 51 52 53 54 55 56 57 58 58 59 59 59 59 58 57 56 55 54 54 54 55 55 56 57 57 56 55 54 52 50 49 46 45 44 43 42 41 40 40
45 46 47 49 50 52 53 55 56 56 57 58 59 58 57 56 55 54 54 53 52 52 52 53 53 54 54 55 54 52 50 48 47 45 42 40 38 37 36 37 36 35 34
44 45 45 46 48 49 50 52 53 54 54 53 53 52 52 52 51 51 51 50 51 51 51 51 51 51 50 50 48 47 46 44 41 37 34 33 32 31 32 31 31 31 32
43 45 46 46 47 47 47 48 48 49 48 48 47 47 48 48 48 48 48 48 48 48 48 48 48 47 46 45 43 42 40 38 34 31 29 28 28 28 29 29 29 29 29
42 44 45 46 46 47 47 46 46 46 46 46 46 47 47 47 47 47 47 46 46 46 46 45 43 43 42 40 38 36 34 30 27 25 24 24 25 26 26 26 26 26 26
41 42 43 43 43 43 43 43 44 44 45 45 45 45 45 45 46 46 45 45 44 44 43 41 39 38 36 34 30 28 25 22 21 21 21 22 23 24 24 24 24 24 24
38 39 39 40 40 40 41 42 42 43 43 43 43 44 44 44 44 44 43 43 42 41 39 36 34 32 29 26 22 19 17 16 16 17 18 19 20 21 21 22 23 23 23
35 36 37 37 38 39 39 40 40 41 41 41 41 42 42 42 41 41 40 39 37 35 33 30 27 24 21 18 14 12 11 12 13 14 16 17 18 19 20 21 22 22 22
32 34 35 36 36 37 37 38 38 37 37 37 37 37 37 37 36 35 34 32 29 27 24 21 18 15 12 9 7 7 8 9 11 12 14 15 17 19 19 20 21 21 21
31 32 33 33 33 34 33 33 33 33 33 32 32 31 31 30 29 27 25 22 20 17 14 12 10 8 5 3 3 4 6 8 10 12 13 15 17 19 20 21 21 21 22
29 29 29 29 30 29 29 28 28 27 26 25 24 24 23 22 20 17 14 12 10 8 6 6 5 4 3 3 3 5 7 9 10 12 14 16 18 20 21 21 21 21 22
25 25 25 24 23 22 22 22 20 19 18 17 16 16 14 12 9 7 5 3 4 6 7 8 8 8 7 7 7 7 8 9 11 13 15 17 19 21 22 22 22 22 21
22 21 20 18 17 16 15 15 14 13 12 11 10 9 7 4 1 3 6 9 10 11 11 11 11 10 10 9 9 9 10 11 13 15 17 19 21 23 23 24 23 23 22
19 18 17 15 14 13 12 11 11 10 9 7 7 6 5 5 7 9 11 13 14 14 14 13 12 12 10 10 9 10 11 12 14 17 19 21 22 23 24 24 24 24 22
18 17 16 15 14 13 12 11 10 9 8 7 7 8 9 10 12 13 14 15 16 16 15 14 13 12 11 10 10 11 12 14 16 18 20 22 23 24 24 24 24 25 24
16 16 15 15 14 14 13 12 11 10 10 9 10 11 11 12 13 15 16 16 16 16 15 14 13 12 11 10 11 12 13 15 17 19 20 21 22 23 24 24 25 25 24
15 15 15 14 14 14 14 13 13 13 12 12 12 13 13 14 15 16 17 17 17 16 15 13 12 11 11 11 11 13 14 16 17 18 19 20 22 23 24 25 25 25 25
14 14 14 14 15 14 14 14 15 14 14 14 14 14 15 15 16 17 17 17 16 15 14 13 12 11 11 11 12 13 15 16 16 17 18 20 21 23 24 25 26 25 25
12 13 13 13 14 14 14 14 14 15 14 14 14 14 15 15 16 16 16 15 14 13 12 11 10 10 11 11 12 13 14 15 15 16 18 19 21 22 23 24 25 25 25
10 11 11 12 13 13 13 13 13 13 13 13 13 13 14 14 14 14 13 13 12 11 10 10 9 10 11 11 12 13 13 14 15 16 17 19 20 21 22 23 24 25 25
9 9 10 10 11 11 11 11 11 11 11 11 11 11 12 11 11 11 10 10 10 9 8 8 9 9 10 11 11 12 13 13 14 16 17 19 19 20 21 22 22 23 24
8 8 8 9 9 9 9 9 9 8 8 9 9 9 9 9 9 8 8 8 8 7 7 7 8 9 10 10 11 11 12 13 14 16 17 18 18 19 20 21 21 22 22
Wind_Direction
277 277 277 277 278 278 279 281 282 283 285 286 287 289 290 290 290 290 290 290 290 291 293 293 293 294 294 294 294 294 295 295 295 295 295 294 294 294 294 294 294 294 293
274 275 276 276 277 279 280 281 282 284 286 287 288 289 289 290 289 289 290 290 290 291 293 294 294 294 295 295 295 296 296 297 297 297 296 296 296 296 297 296 296 296 295
271 273 274 275 276 277 279 280 282 283 285 286 287 287 288 288 288 289 290 290 291 292 293 294 295 295 296 296 296 297 298 298 298 299 299 299 299 299 299 299 299 297 296
270 271 272 273 274 275 277 279 280 282 283 284 285 286 287 287 287 288 289 290 291 292 293 294 295 295 296 297 298 298 299 299 300 301 301 301 301 302 302 302 301 300 299
268 269 270 272 273 273 275 277 279 280 281 281 282 282 283 284 285 286 288 289 290 292 292 293 294 296 297 297 298 299 300 301 302 303 303 304 305 305 306 306 306 305 303
268 268 268 269 271 272 273 275 276 277 278 279 280 281 282 283 285 287 288 289 290 291 292 293 294 295 296 297 298 300 301 301 303 304 305 307 308 310 312 313 313 312 310
266 265 267 268 269 271 273 274 275 277 278 279 281 283 284 285 286 287 287 288 289 290 291 292 294 295 296 297 299 300 301 303 305 307 308 312 315 317 320 322 321 320 319
269 271 273 273 275 276 278 279 279 281 283 283 284 285 285 285 285 285 286 287 287 289 290 291 293 295 297 297 299 300 303 306 308 310 315 320 323 326 329 330 331 330 329
276 278 279 280 281 283 284 286 286 285 285 285 285 284 284 284 284 284 285 286 287 288 289 291 292 294 295 296 297 300 303 306 309 315 321 326 330 333 336 338 339 340 340
282 284 285 286 286 286 286 286 285 284 284 283 283 283 283 284 284 285 285 285 286 287 288 289 290 291 293 294 296 300 303 307 315 323 329 334 337 340 341 343 345 347 347
290 290 290 289 288 287 286 285 285 284 284 283 283 283 283 284 284 284 284 284 285 285 286 286 287 288 289 292 296 300 305 314 322 329 333 338 342 344 346 348 350 352 353
293 293 292 292 291 290 288 287 286 285 285 285 284 284 284 283 283 283 283 283 283 282 282 282 282 282 284 289 295 302 313 323 331 335 339 344 347 349 351 352 353 355 356
297 297 296 294 293 292 290 289 289 288 287 287 287 286 286 285 285 284 283 282 281 278 277 276 273 272 277 284 297 314 328 338 343 345 348 351 352 353 354 355 356 357 358
304 302 300 298 296 294 292 292 291 291 290 290 289 289 288 287 286 284 281 277 274 271 266 259 253 253 254 276 324 349 357 358 357 357 358 357 357 357 357 356 357 358 359
310 308 306 303 299 296 295 296 296 295 294 294 294 294 293 292 289 284 278 270 260 247 223 203 192 173 141 100 62 40 25 15 11 8 6 3 2 360 358 357 357 358 359
321 318 315 312 308 304 302 302 303 304 304 303 304 305 305 302 294 280 259 216 174 153 146 142 134 123 109 92 73 54 37 25 18 13 9 6 4 2 1 359 359 360 360
335 334 332 329 326 322 319 316 314 315 316 316 319 323 326 335 25 115 124 126 126 125 124 121 116 110 101 89 72 55 40 28 19 14 10 8 7 5 4 3 2 2 2
348 349 350 349 347 345 343 341 340 340 343 348 357 11 37 74 97 108 114 117 117 117 116 113 110 105 96 82 65 49 36 25 18 13 10 8 8 7 6 6 7 7 7
358 0 2 4 5 5 5 4 6 9 17 30 47 64 82 93 101 107 111 113 115 115 114 112 107 99 86 71 55 42 30 22 16 12 11 12 12 12 12 12 13 14 15
6 9 13 16 19 22 25 27 31 38 47 60 72 81 89 96 102 107 110 112 114 113 111 107 99 88 75 61 47 35 26 20 17 16 18 20 21 20 20 21 21 21 22
14 19 23 27 29 32 37 42 48 55 63 71 78 84 92 99 104 107 110 112 112 109 104 98 90 79 67 53 41 31 26 22 22 26 30 31 31 30 29 28 27 27 27
20 26 31 35 37 41 45 49 54 59 66 73 80 87 94 99 102 106 108 109 107 103 97 91 81 71 59 47 36 31 29 30 35 39 39 37 36 34 33 32 32 32 32
24 27 32 36 40 43 47 51 55 61 67 74 81 88 95 99 101 104 106 105 103 99 93 85 74 62 52 42 36 35 38 43 45 43 39 36 34 33 33 33 34 35 36
26 29 32 36 40 44 47 51 56 62 69 75 81 87 94 99 102 102 102 102 101 97 90 80 66 54 48 43 41 43 48 49 46 42 37 34 33 32 32 33 35 36 37
27 29 32 36 40 43 46 51 58 65 71 76 82 88 94 99 101 100 99 99 98 94 86 74 61 52 48 48 49 51 51 49 45 39 34 33 32 32 31 33 35 36 38
25 27 33 37 40 43 48 54 60 67 73 78 84 88 94 99 100 100 100 100 97 92 84 73 61 55 54 55 55 54 52 48 41 33 30 30 30 30 31 32 35 37 40